Location: Ammerl�gen
(47.2167°N, 9.6000°E)
Time: 04:54:48
(UTC+00:00)

Iridium 4 Rocket - Pass Details

Date: 21 April 2021
Orbit: 585 x 903 km, 86.9° (Epoch: 16 May)

Event Time Altitude Azimuth Distance (km) Brightness Sun altitude
Exits shadow 22:41:38 56° 22° (NNE) 911 4.0 -30.0°
Drops below altitude 10° 22:45:56 10° 6° (N) 2,399 6.9 -30.1°
Sets 22:48:25 0° 5° (N) 3,381 7.9 -30.2°
